Notices

What's New in latest Release from April 7th, 2021:

- Updated Glossary, including Speed of Maximum Gust, and Total Hourly Precipitation

- Updated national and regional climate services offices contacts and prices information

- Addition of station inventory lists for 1981-2010, 1971-2000, and 1961-1990 Normals.

If you haven't already, please take our survey and provide feedback about our website: https://eccc.sondage-survey.ca/f/LanguageSelection.aspx?s=442ca660-fcf1-47c0-95a9-59707d6fd709

Hourly Data Report for October 08, 2019

SAINT JOHN A
NEW BRUNSWICK
Current Station Operator: NAVCAN

45°18'58.000" N
65°53'24.000" W
108.80 m
8104901
71609
YSJ

Download Data

Hourly Data (October 2019)
Hourly Data Report for October 8, 2019
TIME
LST
Temp Definition
°C
Dew Point Definition
°C
Rel Hum Definition
%
Precip. Amount Definition
mm

Wind Dir Definition
10's deg

Wind Spd Definition
km/h
Visibility Definition
km
Stn Press Definition
kPa
Hmdx Definition


Wind Chill Definition


Weather Definition


00:00 12.2 12.2 100   36 2 8.1 100.58     Rain,Fog
01:00 12.3 12.3 100   18 8 4.8 100.57     Rain,Fog
02:00 12.2 12.2 100   23 8 1.2 100.69     Rain,Fog
03:00 12.0 12.0 100   24 4 4.8 100.75     Rain,Fog
04:00 11.6 11.6 100   25 7 24.1 100.71     Rain
05:00 11.3 11.3 100   23 7 12.9 100.72     Rain
06:00 11.2 11.2 100   21 13 16.1 100.80     Rain
07:00 11.6 11.6 100   21 9 3.2 100.83     Rain,Fog
08:00 11.9 11.9 100   21 13 2.4 100.89     Rain,Fog
09:00 12.5 12.5 100   24 9 4.8 100.95     Fog
10:00 12.9 12.5 97   25 10 8.1 100.96     Fog
11:00 13.8 12.2 91   30 14 12.9 100.97     Cloudy
12:00 14.6 11.6 82   29 13 16.1 100.96     LegendNANA
13:00 15.6 10.9 73   31 16 24.1 100.93     LegendNANA
14:00 15.3 9.9 70   31 14 24.1 100.96     Mostly Cloudy
15:00 16.4 8.2 58   29 16 24.1 100.95     LegendNANA
16:00 16.4 8.4 59   32 12 24.1 101.01     LegendNANA
17:00 15.4 8.6 64   31 9 24.1 101.05     Mostly Cloudy
18:00 11.0 9.8 92   30 4 24.1 101.14     LegendNANA
19:00 8.4 8.2 99   19 4 24.1 101.20     LegendNANA
20:00 7.4 7.4 100   36 2 24.1 101.24     Mostly Cloudy
21:00 6.1 6.1 100   36 3 24.1 101.34     LegendNANA
22:00 5.5 5.5 100   6 5 19.3 101.39     LegendNANA
23:00 5.7 5.7 100   6 4 19.3 101.41     Mostly Cloudy

Notes on Data Quality.

Legend

  • E = Estimated
  • M = Missing
  • NA = Not Available*
  • [empty] = Indicates an unobserved value
Date modified: